Weather Roundup
Issued by NWS

Home | Current Version | Previous Version | Graphics & Text | Print | Product List | Glossary Off
Versions: 1 2 3 4 5 6 7 8 9 10 11 12 13 14 15 16 17 18 19 20 21 22 23 24 25 26 27 28 29 30 31 32 33 34 35 36 37 38 39 40 41 42 43 44 45 46 47 48 49 50

000
NZUS93 KARX 280110
HRRWXR

CURRENT HOURLY OBSERVATIONS ACROSS
MUCH OF THE UPPER MISSISSIPPI VALLEY
NATIONAL WEATHER SERVICE LA CROSSE WI
800 PM CDT WED MAY 27 2015


...SOUTHEAST MINNESOTA...


CITY           SKY/WX    TMP DP  RH WIND       PRES   REMARKS
ROCHESTER      CLEAR     74  60  61 SW5       30.02R
ROCHESTER/MAYO FAIR      79  55  42 W5        30.01R
WINONA         CLEAR     75  61  60 CALM      29.99S
AUSTIN         CLEAR     75  57  53 SW3       30.01S
ALBERT LEA     CLEAR     79  55  44 CALM      30.01R
DODGE CENTER   CLEAR     77  55  47 W3        30.01S
PRESTON        CLEAR     74  57  55 SW3       30.03R
OWATONNA       CLEAR     79  54  41 CALM      30.00S
FARIBAULT      CLEAR     77  57  50 CALM      29.99S
$$

...ELSEWHERE IN MINNESOTA...


CITY           SKY/WX    TMP DP  RH WIND       PRES   REMARKS
MINNEAPOLIS    MOCLDY    80  54  40 W6        29.97R
INTNL FALLS    CLEAR     68  45  43 NE7       29.98R
DULUTH         PTCLDY    76  47  35 W6        29.96R
RED WING       CLEAR     77  59  53 CALM      29.96S
REDWOOD FALLS  PTCLDY    82  44  26 E3        29.96S
MANKATO        CLEAR     81  54  39 CALM      29.99R
WORTHINGTON    PTCLDY    79  46  31 SW6       30.00S
FAIRMONT       CLEAR     81  48  32 S5        29.99S
$$

...SOUTHWEST WISCONSIN...


CITY           SKY/WX    TMP DP  RH WIND       PRES   REMARKS
LA CROSSE      CLEAR     77  60  55 S5        29.99R
PRAIRIE DU CHI CLEAR     76  56  49 CALM      30.02S
BOSCOBEL       CLEAR     76  59  55 S5        30.02R
LONE ROCK      CLEAR     74  59  59 SW5       30.03R
PLATTEVILLE    CLEAR     73  61  66 SW3       30.05S
FORT MC COY    CLEAR     74  57  55 CALM      30.01S
CAMP DOUGLAS   PTCLDY    73  63  68 SW3       30.01R
VIROQUA        FAIR      72  60  66 SW6       30.04R
WIS DELLS      CLEAR     71  57  63 SW3       30.03R
$$

...ELSEWHERE IN WISCONSIN...


CITY           SKY/WX    TMP DP  RH WIND       PRES   REMARKS
MILWAUKEE      CLEAR     65  55  70 SE5       30.05R
MADISON        CLEAR     73  57  57 CALM      30.04R
GREEN BAY      CLEAR     72  61  68 S3        30.00R
EAU CLAIRE     PTCLDY    74  58  57 SW5       29.98R
BLACK RVR FLS  FAIR      76  58  52 CALM      29.99R
MEDFORD        TSTM      62  56  82 NW6       30.05R
WAUSAU         PTCLDY    71  59  65 W3        30.00R
WIS RAPIDS     PTCLDY    71  59  65 CALM      30.02R
MARSHFIELD     MOCLDY    73  59  61 SW6       30.01R
RICE LAKE      CLEAR     74  56  53 SW3       29.99R
$$

...NORTHEAST IOWA...


CITY           SKY/WX    TMP DP  RH WIND       PRES   REMARKS
DECORAH        CLEAR     75  59  57 S5        30.02S
MASON CITY     CLEAR     78  54  43 SW3       30.02S
CHARLES CITY   CLEAR     77  59  53 S8        30.03S
OELWEIN        CLEAR     75  61  60 SW5       30.05R
$$

...ELSEWHERE IN IOWA...


CITY           SKY/WX    TMP DP  RH WIND       PRES   REMARKS
DES MOINES     MOCLDY    77  57  50 S6        30.04R
IOWA CITY      CLEAR     77  56  48 S3        30.06S
FORT DODGE     CLEAR     75  57  53 S6        30.03S
$$

...NORTHERN ILLINOIS...


CITY           SKY/WX    TMP DP  RH WIND       PRES   REMARKS
CHICAGO-OHARE  CLEAR     70  54  56 NW7       30.05R
CHICAGO-MIDWAY PTCLDY    73  54  51 NW6       30.06R
MOLINE         CLEAR     75  57  53 S3        30.05F
ROCKFORD       CLEAR     73  55  53 CALM      30.07R
PEORIA         CLEAR     77  56  48 CALM      30.08R
$$

NOTE: "FAIR" INDICATES FEW OR NO CLOUDS BELOW 12,000 FEET WITH NO
SIGNIFICANT WEATHER AND/OR OBSTRUCTIONS TO VISIBILITY. WIND
SPEEDS ARE IN MILES-PER-HOUR.



USA.gov is the U.S. government's official web portal to all federal, state and local government web resources and services.